False Pass, AK

8:58 AM HDT on June 27, 2017 (GMT -0900)
False Pass

Weather History for PAKF - September, 2012

Change the Weather History Date:

Tuesday, September 4, 2012

  Actual Average (PACD) Record (PACD)
Temperature  
Mean Temperature 52 °F -  
Max Temperature 52 °F 55 °F 62 °F (1985)
Min Temperature 48 °F 45 °F 36 °F (1960)
Degree Days  
Heating Degree Days 14    
Growing Degree Days 2 (Base 50)    
Moisture  
Dew Point 46 °F    
Average Humidity 80    
Maximum Humidity 96    
Minimum Humidity 62    
Precipitation  
Precipitation 1.10 in - - ()
Sea Level Pressure  
Sea Level Pressure 29.40 in    
Wind  
Wind Speed 30 mph (SSE)    
Max Wind Speed 47 mph    
Max Gust Speed 67 mph    
Visibility 8 miles    
Events Rain    
Averages and records for this station are not official NWS values.
T = Trace of Precipitation, MM = Missing Value Source: NWS Daily Summary

Daily Weather History Graph

Daily Weather History Graph

Search for Another Location

Airport or City:

Trip Planner

Search our weather history database for the weather conditions in past years. The results will help you decide how hot, cold, wet, or windy it might be!

Date:

Astronomy

Sep. 04, 2012 Rise Set
Actual Time 7:07 AM HDT 8:36 PM HDT
Civil Twilight 6:29 AM HDT 9:13 PM HDT
Nautical Twilight 5:43 AM HDT 9:59 PM HDT
Astronomical Twilight 4:50 AM HDT 10:51 PM HDT
Moon 9:39 PM HDT (9/4) 12:20 PM HDT (9/4)
Length of Visible Light 14h 44m
Length of Day
13h 29m
Waning Gibbous, 82% of the Moon is Illuminated
Sep 4
Waning Gibbous
Sep 8
Last Quarter
Sep 15
New
Sep 22
First Quarter
Sep 29
Full

Hourly Weather History & Observations

Time (HDT) Temp. Dew Point Humidity Pressure Visibility Wind Dir Wind Speed Gust Speed Precip Events Conditions
12:01 AM 50.0 °F 48.0 °F 93% 29.77 in 5.0 mi SE 25.3 mph 42.6 mph 0.10 in Rain Rain
1:01 AM 50.0 °F 48.9 °F 96% 29.71 in 4.0 mi SE 38.0 mph 51.8 mph 0.26 in Rain Rain
2:01 AM 51.1 °F 48.9 °F 92% 29.63 in 8.0 mi SE 21.9 mph 54.1 mph 0.06 in Rain Light Rain
3:01 AM 52.0 °F 50.0 °F 93% 29.56 in 3.0 mi SE 24.2 mph 44.9 mph 0.27 in Rain Rain
4:01 AM 53.1 °F 51.1 °F 93% 29.52 in 5.0 mi SE 26.5 mph 57.5 mph 0.30 in Rain Rain
5:01 AM 55.4 °F 50.0 °F 82% 29.22 in 10.0 mi South 27.6 mph 58.7 mph 0.05 in Rain Light Rain
5:10 AM 55.4 °F 50.0 °F 82% 29.23 in 10.0 mi SSE 34.5 mph 56.4 mph 0.05 in   Overcast
5:17 AM 55.4 °F 50.0 °F 82% 29.22 in 10.0 mi SSE 33.4 mph 55.2 mph 0.05 in Rain Light Rain
5:24 AM 55.4 °F 48.2 °F 77% 29.21 in 10.0 mi SSE 31.1 mph 62.1 mph 0.05 in Rain Light Rain
6:01 AM 54.0 °F 48.9 °F 83% 29.49 in 6.0 mi SSE 36.8 mph 47.2 mph 0.06 in Rain Light Rain
7:01 AM 53.1 °F 46.9 °F 80% 29.49 in 9.0 mi SSE 35.7 mph 52.9 mph 0.04 in   Overcast
7:28 AM 53.6 °F 44.6 °F 72% 29.23 in 8.0 mi SSE 35.7 mph 52.9 mph N/A   Overcast
7:56 AM 53.6 °F 41.0 °F 62% 29.21 in 10.0 mi SSE 26.5 mph 49.5 mph N/A   Overcast
8:01 AM 53.6 °F 42.8 °F 67% 29.22 in 10.0 mi SE 26.5 mph 49.5 mph N/A   Overcast
8:09 AM 53.1 °F 46.0 °F 77% 29.49 in 8.0 mi SSE 18.4 mph 42.6 mph N/A   Overcast
8:19 AM 51.8 °F 46.4 °F 82% 29.21 in 6.0 mi SE 20.7 mph 39.1 mph N/A   Haze
9:01 AM 51.8 °F 44.6 °F 76% 29.20 in 2.5 mi SSE 34.5 mph 57.5 mph 0.02 in Rain Rain
9:12 AM 51.8 °F 44.6 °F 76% 29.20 in 7.0 mi SSE 39.1 mph 57.5 mph 0.02 in Rain Light Rain
10:01 AM 51.8 °F 44.6 °F 76% 29.19 in 7.0 mi SE 34.5 mph 47.2 mph 0.02 in Rain Light Rain
10:10 AM 52.0 °F 45.0 °F 77% 29.46 in 8.0 mi SSE 39.1 mph 52.9 mph 0.02 in Rain Light Rain
10:25 AM 51.8 °F 44.6 °F 76% 29.20 in 6.0 mi SSE 39.1 mph 57.5 mph 0.00 in Rain Light Rain
11:01 AM 52.0 °F 45.0 °F 77% 29.47 in 9.0 mi SSE 34.5 mph 55.2 mph 0.01 in Rain Light Rain
12:01 PM 52.0 °F 44.1 °F 74% 29.46 in 8.0 mi SSE 27.6 mph 55.2 mph 0.00 in Rain Light Rain
1:01 PM 52.0 °F 44.1 °F 74% - 8.0 mi SSE 39.1 mph 61.0 mph 0.01 in   Overcast
2:01 PM 50.0 °F 44.6 °F 82% 29.19 in 2.5 mi SSE 33.4 mph 47.2 mph 0.00 in Rain Light Rain
2:07 PM 50.0 °F 46.0 °F 86% 29.47 in 2.0 mi SE 35.7 mph 50.6 mph 0.01 in Rain Light Rain
2:23 PM 50.0 °F 46.4 °F 87% 29.20 in 5.0 mi SSE 44.9 mph 63.3 mph 0.01 in Rain Light Rain
3:01 PM 51.1 °F 46.0 °F 83% 29.44 in 9.0 mi SSE 47.2 mph 66.7 mph 0.03 in Rain Light Rain
4:01 PM 52.0 °F 45.0 °F 77% 29.47 in 10.0 mi SSE 42.6 mph 58.7 mph 0.03 in Rain Light Rain
5:01 PM 51.1 °F 46.0 °F 83% 29.47 in 6.0 mi SSE 19.6 mph 56.4 mph 0.00 in Rain Light Rain
5:24 PM 51.8 °F 44.6 °F 76% 29.20 in 10.0 mi SSE 21.9 mph 50.6 mph 0.00 in Rain Light Rain
6:01 PM 51.1 °F 45.0 °F 80% 29.49 in 9.0 mi South 21.9 mph 35.7 mph 0.00 in Rain Light Rain
8:01 PM 48.9 °F 44.1 °F 83% 29.54 in 5.0 mi SSE 19.6 mph 34.5 mph 0.00 in Rain Light Rain
9:01 PM 50.0 °F 43.0 °F 77% 29.57 in 10.0 mi South 25.3 mph 36.8 mph 0.00 in Rain Light Rain
9:50 PM 51.8 °F 42.8 °F 71% 29.34 in 10.0 mi SSE 23.0 mph 41.4 mph 0.00 in   Mostly Cloudy
10:01 PM 51.1 °F 42.1 °F 71% 29.62 in 10.0 mi SSE 26.5 mph 41.4 mph 0.00 in   Mostly Cloudy
11:01 PM 51.1 °F 41.0 °F 68% 29.68 in 10.0 mi West 9.2 mph - N/A   Overcast